STARLINK-32618, 62045

Orbit data source: Space-Track

STARLINK-32618, 62045 is a payload satellite owned by SpaceX/Seattle (US) in LEO that was launched on Thu, 21 Nov 2024 UTC via an FALCON 9 launch vehicle from the Air Force Eastern Test Range (AFETR). Payload-class satellites include a variety of spacecraft equipped with specific instruments for various scientific and technological missions. These include communications satellites like Starlink; space stations such as the ISS; scientific satellites like the Hubble; Earth observation satellites from companies like Planet Labs, Umbra, and HawkEye 360; GPS; miniature CubeSats for education and research; and military/defense satellites.

Loading next visibility...
Identifier
62045, 2024-216P
Orbit
LEO
Country
Flag of USUS
Related business
Manufacturer
SpaceX/Seattle
Mission
Operational Commercial Communications
Bus & Motor
STARLINK V2M, Unknown motor
Mass
730 kg wet, ~700 kg dry
Launch date (UTC)
2024-11-21 (1 year ago)
Launch vehicle
FALCON 9
Launch site
Air Force Eastern Test Range (AFETR)
Object type
Payload
Rocket body
Debris
Shape & HBR
Box + 2 Pan, 17.7 m
Radar Cross Section
33.884 m², Large (>1 m²)

Expand to show TLE details & history
Last TLE update: 12 hours ago

TLE from 12 hours ago
0 STARLINK-32618
1 62045U 24216P   26037.56659104  .00024935  00000-0  91181-3 0  9992
2 62045  43.0028  72.2696 0002185 266.5441  93.5161 15.27606760 69114
Epoch: 2026-02-06T13:35Z
TLE epoch observation values (Epoch: 2026-02-06T13:35:53.465Z)
Latitude
-0.00002°
Longitude
91.59418°
Altitude
482.837 km
Speed
7.626 km/s
True Right ascension
04h 49m 04s
True Declination
0° 00' 00"
Sunlit
Object was in daylight at epoch
Visualization orbit readout
Latitude
Unknown
Longitude
Unknown
Altitude
Unknown
Speed
Unknown
Apparent Right ascension
Unknown
Apparent Declination
Unknown
Sunlit
N/A
Visualization observer readout
Local Sidereal Time
03:49:10
Azimuth
Unknown
Elevation
Unknown
Doppler factor
Unknown
Orbital elements
Apogee altitude
486.413 km
Perigee altitude
483.414 km
Semi-major axis
6,863.051 km
Eccentricity
0.00022
Inclination
43.0028°
RAAN
72.2696°
Arg. of periapsis
266.5441°
True anomaly
93.54109°
Mean anomaly
93.5161°
Eccentric anomaly
93.5286°
Mean motion
3.8174 °/min
Orbital period
94.31 mins
BSTAR
0.00091181
Loading maneuver chart data...
Computing Atmospheric mass density...
Loading historical data...
Loading historical data...
Loading historical data...
Loading historical data...
Loading historical data...
Loading historical data...
Loading historical data...

Documentation

Showing up to 5 results
|